Regional Weather Roundup
Issued by NWS Little Rock, AR

Home | Current Version | Previous Version | Text Only | Print | Product List | Glossary Off
Versions: 1 2 3 4 5 6 7 8 9 10 11 12 13 14 15 16 17 18 19 20 21 22 23 24 25 26 27 28 29 30 31 32 33 34 35 36 37 38 39 40 41 42 43 44 45 46 47 48 49 50

532
ASUS44 KLZK 191212
RWRLZK

WEATHER ROUNDUP FOR ARKANSAS
NATIONAL WEATHER SERVICE LITTLE ROCK AR
700 AM CDT TUE SEP 19 2017

NOTE: "FAIR" INDICATES FEW OR NO CLOUDS BELOW 12,000 FEET WITH NO
SIGNIFICANT WEATHER AND/OR OBSTRUCTIONS TO VISIBILITY.

ARZ001-003-010-029-191300-
NORTHWEST ARKANSAS

CITY           SKY/WX    TMP DP  RH WIND       PRES   REMARKS
FAYETTEVILLE   CLEAR     60  60 100 CALM      29.95S FOG
6HR MIN TEMP:  60; 6HR MAX TEMP:  64;

FORT SMITH     CLEAR     69  67  93 CALM      29.92R
6HR MIN TEMP:  68; 6HR MAX TEMP:  73;

HARRISON       FOG       62  62 100 SE5       29.98R VSB 3/4
6HR MIN TEMP:  62; 6HR MAX TEMP:  67;

BENTONVILLE    CLEAR     65  63  93 CALM      29.97R
6HR MIN TEMP:  65; 6HR MAX TEMP:  69;

ROGERS         CLEAR     66  64  93 SE5       29.96R
6HR MIN TEMP:  65; 6HR MAX TEMP:  69;

SILOAM SPGS    CLEAR     64  62  93 E5        29.95R
6HR MIN TEMP:  63; 6HR MAX TEMP:  67;

HIGHFILL       CLEAR     64  63  96 S3        29.95R
6HR MIN TEMP:  62; 6HR MAX TEMP:  67;

SPRINGDALE     CLEAR     66  66 100 SE3       29.97R
$$

ARZ004-005-016-191300-
NORTH CENTRAL ARKANSAS

CITY           SKY/WX    TMP DP  RH WIND       PRES   REMARKS
BATESVILLE     MOCLDY   N/A N/A N/A CALM      29.96S HAZE
FLIPPIN        LGT RAIN  64  64 100 CALM      29.96S VSB 1/4
6HR MIN TEMP:  63; 6HR MAX TEMP:  66; 6HR PCP: TRACE;

MTN HOME       FOG       65  65 100 CALM      29.96R VSB 1/4
6HR MIN TEMP:  64; 6HR MAX TEMP:  67;

$$

ARZ040-041-191300-
WEST CENTRAL ARKANSAS

CITY           SKY/WX    TMP DP  RH WIND       PRES   REMARKS
MENA           PTCLDY    64  64 100 CALM      29.97R
MOUNT IDA      CLEAR     64  63  96 CALM      29.94R
6HR MIN TEMP:  64; 6HR MAX TEMP:  68;

$$

ARZ009-017-025-026-028-191300-
NORTHEAST ARKANSAS

CITY           SKY/WX    TMP DP  RH WIND       PRES   REMARKS
JONESBORO      MOCLDY    68  68 100 CALM      29.94S FOG
6HR MIN TEMP:  68; 6HR MAX TEMP:  71;

NEWPORT        FOG       66  66 100 CALM      29.95R VSB 1/4
6HR MIN TEMP:  65; 6HR MAX TEMP:  68;

BLYTHEVILLE    CLEAR     70  70 100 SW5       29.95R
6HR MIN TEMP:  70; 6HR MAX TEMP:  72;

$$

ARZ022-023-033-042-044-191300-
CENTRAL ARKANSAS

CITY           SKY/WX    TMP DP  RH WIND       PRES   REMARKS
LITTLE ROCK    FOG       69  69 100 CALM      29.95R VSB 1/2
6HR MIN TEMP:  69; 6HR MAX TEMP:  73;

N LITTLE ROCK    N/A     71  69  95 CALM      29.95R
6HR MIN TEMP:  71; 6HR MAX TEMP:  75;

JACKSONVILLE   CLOUDY    70  70 100 CALM      29.95R FOG
6HR MIN TEMP:  67; 6HR MAX TEMP:  72;

CONWAY         FOG       66  66 100 NE5       29.93R VSB 1/4
HOT SPRINGS    CLEAR     69  68  96 NE5       29.95R
6HR MIN TEMP:  68; 6HR MAX TEMP:  75;

RUSSELLVILLE   CLEAR     67  67 100 CALM      29.93R
6HR MIN TEMP:  66; 6HR MAX TEMP:  73;

CLINTON        MOCLDY    64  64 100 CALM      29.96R FOG
$$

ARZ036-191300-
EAST ARKANSAS

CITY           SKY/WX    TMP DP  RH WIND       PRES   REMARKS
WEST MEMPHIS   CLEAR     69  69 100 S5        29.95R FOG
6HR MIN TEMP:  67; 6HR MAX TEMP:  71;

$$

ARZ050-053-066-070-073-191300-
SOUTHWEST ARKANSAS

CITY           SKY/WX    TMP DP  RH WIND       PRES   REMARKS
ARKADELPHIA    FOG       66  66 100 CALM      29.96R VSB 1
6HR MIN TEMP:  65; 6HR MAX TEMP:  70;

CAMDEN         FOG       68  66  94 CALM      29.95R VSB 3/4
TEXARKANA      CLEAR     71  71 100 S7        29.95R
6HR MIN TEMP:  71; 6HR MAX TEMP:  75;

EL DORADO      CLEAR     71  70  96 CALM      29.96R
6HR MIN TEMP:  70; 6HR MAX TEMP:  72;

$$

ARZ056-057-069-191300-
SOUTHEAST ARKANSAS

CITY           SKY/WX    TMP DP  RH WIND       PRES   REMARKS
PINE BLUFF     FOG       69  68  96 CALM      29.96R VSB 1/4
6HR MIN TEMP:  68; 6HR MAX TEMP:  75;

STUTTGART      CLEAR     72  70  93 S3        29.95R
6HR MIN TEMP:  70; 6HR MAX TEMP:  74;

MONTICELLO     CLEAR     74  71  91 CALM      29.96R
6HR MIN TEMP:  72; 6HR MAX TEMP:  78;


$$






USA.gov is the U.S. government's official web portal to all federal, state and local government web resources and services.